Location: Beaurecueil
(43.5122°N, 5.5450°E)
Time: 20:47:23
(UTC+00:00)

Okean 2 Rocket - Pass Details

Date: 18 September 2020
Orbit: 616 x 642 km, 82.5° (Epoch: 27 October)

Event Time Altitude Azimuth Distance (km) Brightness Sun altitude
Rises 19:39:30 0° 202° (SSW) 2,933 6.5 -21.5°
Reaches altitude 10° 19:41:49 10° 209° (SSW) 2,026 5.7 -21.9°
Maximum altitude 19:46:08 46° 282° (WNW) 865 4.2 -22.6°
Drops below altitude 10° 19:50:28 10° 356° (N) 2,029 6.1 -23.3°
Sets 19:52:48 0° 3° (N) 2,938 6.8 -23.7°
